Location: Harztor
(51.5560°N, 10.7676°E)
Time: 17:34:24
(UTC+02:00)

ISS - Visible Passes

Search period start: 17 May 2021 00:00
Search period end: 27 May 2021 00:00
Orbit: 417 x 422 km, 51.6° (Epoch: 17 May)

Date Brightness Start Highest point End Pass type
(mag) Time Alt. Az. Time Alt. Az. Time Alt. Az.
17 May -3.8 00:29:37 10° W 00:33:00 87° N 00:36:23 10° E visible
17 May -3.9 02:06:26 10° W 02:09:48 65° SSW 02:13:09 10° ESE visible
17 May -2.4 03:43:39 10° W 03:46:12 20° SW 03:48:45 10° SSE visible
17 May -3.2 22:05:45 10° SW 22:08:53 37° SSE 22:12:02 10° E visible
17 May -3.9 23:42:09 10° W 23:45:32 88° S 23:48:55 10° E visible
18 May -3.9 01:18:59 10° W 01:22:22 79° SSW 01:22:53 60° ESE visible
18 May -3.9 22:54:42 10° WSW 22:58:04 77° SSE 23:01:28 10° E visible
19 May -3.9 00:31:31 10° W 00:34:54 88° SSW 00:36:27 30° E visible
19 May -1.7 02:08:23 10° W 02:09:23 17° W 02:09:23 17° W visible
19 May -3.8 22:07:18 10° WSW 22:10:38 64° SSE 22:13:58 10° E visible
19 May -3.8 23:44:03 10° W 23:47:26 87° N 23:50:16 14° E visible
20 May -2.9 01:20:53 10° W 01:23:12 36° WSW 01:23:12 36° WSW visible
20 May -3.8 22:56:34 10° W 22:59:57 87° N 23:03:20 10° E visible
21 May -3.9 00:33:24 10° W 00:36:45 65° SSW 00:37:06 59° SSE visible
21 May -3.8 22:09:06 10° W 22:12:28 88° S 22:15:52 10° E visible
21 May -3.9 23:45:55 10° W 23:49:18 78° SSW 23:51:03 26° ESE visible
22 May -1.7 01:22:54 10° W 01:23:59 17° W 01:23:59 17° W visible
22 May -3.8 22:58:27 10° W 23:01:50 88° S 23:05:02 11° E visible
23 May -2.9 00:35:19 10° W 00:37:58 35° SW 00:37:58 35° SW visible
23 May -3.7 22:10:57 10° W 22:14:20 87° N 22:17:44 10° E visible
23 May -3.5 23:47:47 10° W 23:51:05 50° SSW 23:51:59 37° SSE visible
24 May -3.8 23:00:18 10° W 23:03:39 65° SSW 23:06:01 18° ESE visible
25 May -1.8 00:37:31 10° W 00:38:57 17° WSW 00:38:57 17° WSW visible
25 May -3.8 22:12:49 10° W 22:16:11 78° SSW 22:19:33 10° ESE visible
25 May -2.7 23:49:47 10° W 23:52:43 27° SSW 23:53:00 27° SSW visible
26 May -3.0 23:02:11 10° W 23:05:21 37° SSW 23:07:06 21° SSE visible
